Radiation Dose at Monitoring Post of Fukushima Daini Nuclear Power Station
Date,Time,MP-1(microSv/h),MP-2(microSv/h),MP-3(microSv/h),MP-4(microSv/h),MP-5(microSv/h),MP-6(microSv/h),MP-7(microSv/h),Wind Direction,Wind Velocity(m/s),Rain
2013/02/01,00:00,1.1,0.7,1.1,1.0,0.9,0.5,0.4,west,0.8,No
2013/02/01,00:10,1.1,0.7,1.1,1.0,0.9,0.5,0.4,-,-,No
2013/02/01,00:20,1.1,0.7,1.1,1.0,0.9,0.5,0.4,north-northeast,1.4,No
2013/02/01,00:30,1.1,0.7,1.1,1.0,0.9,0.5,0.4,north-northeast,2.0,No
2013/02/01,00:40,1.1,0.7,1.1,1.0,0.9,0.5,0.4,north-northeast,1.6,No
2013/02/01,00:50,1.1,0.7,1.1,1.0,0.9,0.5,0.4,north-northeast,1.0,No
2013/02/01,01:00,1.1,0.7,1.1,1.0,0.9,0.5,0.4,-,-,No
2013/02/01,01:10,1.1,0.7,1.1,1.0,0.9,0.5,0.4,-,-,No
2013/02/01,01:20,1.1,0.7,1.1,1.0,0.9,0.5,0.4,-,-,No
2013/02/01,01:30,1.1,0.7,1.1,1.0,0.9,0.5,0.4,-,-,No
2013/02/01,01:40,1.1,0.7,1.1,1.0,0.9,0.5,0.4,north-northeast,1.2,No
2013/02/01,01:50,1.1,0.7,1.1,1.0,0.9,0.5,0.4,northeast,1.5,No
2013/02/01,02:00,1.1,0.7,1.1,1.0,0.9,0.5,0.4,north,1.1,No
2013/02/01,02:10,1.1,0.7,1.1,1.0,0.9,0.5,0.4,north,2.1,No
2013/02/01,02:20,1.1,0.7,1.1,1.0,0.9,0.5,0.4,north,2.2,No
2013/02/01,02:30,1.1,0.7,1.1,1.0,0.9,0.5,0.4,north,1.8,No
2013/02/01,02:40,1.1,0.7,1.1,1.0,0.9,0.5,0.4,north,2.3,No
2013/02/01,02:50,1.1,0.7,1.1,1.0,0.9,0.5,0.4,north,2.3,No
2013/02/01,03:00,1.1,0.7,1.1,1.0,0.9,0.5,0.4,north,2.1,No
2013/02/01,03:10,1.1,0.7,1.1,1.0,0.9,0.5,0.4,north,2.2,No
2013/02/01,03:20,1.1,0.7,1.1,1.0,0.9,0.5,0.4,north,2.2,No
2013/02/01,03:30,1.1,0.7,1.1,1.0,0.9,0.5,0.4,north-northwest,1.9,No
2013/02/01,03:40,1.1,0.7,1.1,1.0,0.9,0.5,0.4,north,1.9,No
2013/02/01,03:50,1.1,0.7,1.1,1.0,0.9,0.5,0.4,north,1.8,No
2013/02/01,04:00,1.1,0.7,1.1,1.0,0.9,0.5,0.4,north-northwest,1.7,No
2013/02/01,04:10,1.1,0.7,1.1,1.0,0.9,0.5,0.4,north-northwest,2.1,No
2013/02/01,04:20,1.1,0.7,1.1,1.0,0.9,0.5,0.4,north-northwest,1.8,No
2013/02/01,04:30,1.1,0.7,1.1,1.0,0.9,0.5,0.4,north,1.9,No
2013/02/01,04:40,1.1,0.7,1.1,1.0,0.9,0.5,0.4,north-northwest,1.8,No
2013/02/01,04:50,1.1,0.7,1.1,1.0,0.9,0.5,0.4,north-northwest,1.6,No
2013/02/01,05:00,1.1,0.7,1.1,1.0,0.9,0.5,0.4,north-northwest,1.7,No
2013/02/01,05:10,1.1,0.7,1.1,1.0,0.9,0.5,0.4,north-northwest,1.1,No
2013/02/01,05:20,1.1,0.7,1.1,1.0,0.9,0.5,0.4,north-northwest,1.3,No
2013/02/01,05:30,1.1,0.7,1.1,1.0,0.9,0.5,0.4,northwest,1.5,No
2013/02/01,05:40,1.1,0.7,1.1,1.0,0.9,0.5,0.4,north-northwest,1.1,No
2013/02/01,05:50,1.1,0.7,1.1,1.0,0.9,0.5,0.4,north-northwest,0.9,No
2013/02/01,06:00,1.1,0.7,1.1,1.0,0.9,0.5,0.4,-,-,No
2013/02/01,06:10,1.1,0.7,1.1,1.0,0.9,0.5,0.4,north-northwest,1.1,No
2013/02/01,06:20,1.1,0.7,1.1,1.0,0.9,0.5,0.4,northwest,1.1,No
2013/02/01,06:30,1.1,0.7,1.1,1.0,0.9,0.5,0.4,north-northwest,1.4,No
2013/02/01,06:40,1.1,0.7,1.1,1.0,0.9,0.5,0.4,north,1.5,No
2013/02/01,06:50,1.1,0.7,1.1,1.0,0.9,0.5,0.4,northwest,1.0,No
2013/02/01,07:00,1.1,0.7,1.1,1.0,0.9,0.5,0.4,-,-,No
2013/02/01,07:10,1.1,0.7,1.1,1.0,0.9,0.5,0.4,-,-,No
2013/02/01,07:20,1.1,0.7,1.1,1.0,0.9,0.5,0.4,-,-,No
2013/02/01,07:30,1.1,0.7,1.1,1.0,0.9,0.5,0.4,-,-,No
2013/02/01,07:40,1.1,0.7,1.1,1.0,0.9,0.5,0.4,northeast,1.1,No
2013/02/01,07:50,1.1,0.7,1.1,1.0,0.9,0.5,0.4,-,-,No
2013/02/01,08:00,1.1,0.7,1.1,1.0,0.9,0.5,0.4,-,-,No
2013/02/01,08:10,1.1,0.7,1.1,1.0,0.9,0.5,0.4,-,-,No
2013/02/01,08:20,1.1,0.7,1.1,1.0,0.9,0.5,0.4,-,-,No
2013/02/01,08:30,1.1,0.7,1.1,1.0,0.9,0.5,0.4,-,-,No
2013/02/01,08:40,1.1,0.7,1.1,1.0,0.9,0.5,0.4,southeast,0.7,No
2013/02/01,08:50,1.1,0.7,1.1,1.0,0.9,0.5,0.4,-,-,No
2013/02/01,09:00,1.1,0.7,1.1,1.0,0.9,0.5,0.4,east,1.4,No
2013/02/01,09:10,1.1,0.7,1.1,1.0,0.9,0.5,0.4,east-southeast,1.8,No
2013/02/01,09:20,1.1,0.7,1.1,1.0,0.9,0.5,0.4,south,2.3,No
2013/02/01,09:30,1.1,0.7,1.1,1.0,0.9,0.5,0.4,south-southeast,1.5,No
2013/02/01,09:40,1.1,0.7,1.1,-,0.9,0.5,0.4,south-southeast,2.1,No
2013/02/01,09:50,1.1,0.7,1.1,-,0.9,0.5,0.4,southeast,2.7,No
2013/02/01,10:00,1.1,0.7,1.1,-,0.9,0.5,0.4,southeast,2.8,No
2013/02/01,10:10,1.1,0.7,1.1,-,0.9,0.5,0.4,southeast,3.1,No
2013/02/01,10:20,1.1,0.7,1.1,-,0.9,0.5,0.4,south-southeast,2.7,No
2013/02/01,10:30,1.1,0.7,1.1,-,0.9,0.5,0.4,southeast,3.2,No
2013/02/01,10:40,1.1,0.7,1.1,-,0.9,0.5,0.4,south-southeast,2.7,No
2013/02/01,10:50,1.1,0.7,1.1,-,0.9,0.5,0.4,southeast,2.3,No
2013/02/01,11:00,1.1,0.7,1.1,-,0.9,0.5,0.4,southeast,3.1,No
2013/02/01,11:10,1.1,0.7,1.1,-,0.9,0.5,0.4,southeast,3.7,No
2013/02/01,11:20,1.1,0.7,1.1,-,0.9,0.5,0.4,southeast,4.8,No
2013/02/01,11:30,1.1,0.7,1.1,-,0.9,0.5,0.4,south-southeast,7.4,No
2013/02/01,11:40,1.1,0.7,1.1,-,0.9,0.5,0.4,south-southeast,7.0,No
2013/02/01,11:50,1.1,0.7,1.1,-,0.9,0.5,0.4,south-southeast,8.4,No
2013/02/01,12:00,1.1,0.7,1.1,-,0.9,0.5,0.4,south-southeast,7.7,No
2013/02/01,12:10,1.1,0.7,1.1,-,0.9,0.5,0.4,south,7.8,No
2013/02/01,12:20,1.1,0.7,1.1,-,0.9,0.5,0.4,south-southeast,8.9,No
2013/02/01,12:30,1.1,0.7,1.1,-,0.9,0.5,0.4,south-southeast,9.2,No
2013/02/01,12:40,1.1,0.7,1.1,-,0.9,0.5,0.4,south,10.0,No
2013/02/01,12:50,1.1,0.7,1.1,-,0.9,0.5,0.4,south,10.0,No
2013/02/01,13:00,1.1,0.7,1.1,-,0.9,0.5,0.4,south,10.3,No
2013/02/01,13:10,1.1,0.7,1.1,-,0.9,0.5,0.4,south-southeast,9.5,No
2013/02/01,13:20,1.1,0.7,1.1,-,0.9,0.5,0.4,south,9.2,No
2013/02/01,13:30,1.1,0.7,1.1,-,0.9,0.5,0.4,south-southeast,10.0,No
2013/02/01,13:40,1.1,0.7,1.1,-,0.9,0.5,0.4,south,10.1,No
2013/02/01,13:50,1.1,0.7,1.1,-,0.9,0.5,0.4,south,11.5,No
2013/02/01,14:00,1.1,0.7,1.1,-,0.9,0.5,0.4,south,11.5,No
2013/02/01,14:10,1.1,0.7,1.1,-,0.9,0.5,0.4,south,10.4,No
2013/02/01,14:20,1.1,0.7,1.1,-,0.9,0.5,0.4,south-southeast,9.6,No
2013/02/01,14:30,1.1,0.7,1.1,-,0.9,0.5,0.4,south,10.6,No
2013/02/01,14:40,1.1,0.7,1.1,-,0.9,0.5,0.4,south,8.5,No
2013/02/01,14:50,1.1,0.7,1.1,-,0.9,0.5,0.4,south,9.2,No
2013/02/01,15:00,1.1,0.7,1.1,-,0.9,0.5,0.4,south,9.2,No
2013/02/01,15:10,1.1,0.7,1.1,-,0.9,0.5,0.4,south,10.9,No
2013/02/01,15:20,1.1,0.7,1.1,-,0.9,0.5,0.4,south,10.0,No
2013/02/01,15:30,1.1,0.7,1.1,1.0,0.9,0.5,0.4,south,9.8,No
2013/02/01,15:40,1.1,0.7,1.1,1.0,0.9,0.5,0.4,south,9.8,No
2013/02/01,15:50,1.1,0.7,1.1,1.0,0.9,0.5,0.4,south,9.2,No
2013/02/01,16:00,1.1,0.7,1.1,1.0,0.9,0.5,0.4,south,9.5,No
2013/02/01,16:10,1.1,0.7,1.1,1.0,0.9,0.5,0.4,south,8.7,No
2013/02/01,16:20,1.1,0.7,1.1,1.0,0.9,0.5,0.4,south,8.4,No
2013/02/01,16:30,1.1,0.7,1.1,1.0,0.9,0.5,0.4,south,8.6,No
2013/02/01,16:40,1.1,0.7,1.1,1.0,0.9,0.5,0.4,south,8.3,No
2013/02/01,16:50,1.1,0.7,1.1,1.0,0.9,0.5,0.4,south-southwest,8.3,No
2013/02/01,17:00,1.1,0.7,1.1,1.0,0.9,0.5,0.4,south,8.4,No
2013/02/01,17:10,1.1,0.7,1.1,1.0,0.9,0.5,0.4,south,8.6,No
2013/02/01,17:20,1.1,0.7,1.1,1.0,0.9,0.5,0.4,south,7.6,No
2013/02/01,17:30,1.1,0.7,1.1,1.0,0.9,0.5,0.4,south-southwest,7.8,No
2013/02/01,17:40,1.1,0.7,1.1,1.0,0.9,0.5,0.4,south-southwest,7.9,No
2013/02/01,17:50,1.1,0.7,1.1,1.0,0.9,0.5,0.4,south,7.5,No
2013/02/01,18:00,1.1,0.7,1.1,1.0,0.9,0.5,0.4,south-southwest,7.9,No
2013/02/01,18:10,1.1,0.7,1.1,1.0,0.9,0.5,0.4,south-southwest,7.7,No
2013/02/01,18:20,1.1,0.7,1.1,1.0,0.9,0.5,0.4,south,7.7,No
2013/02/01,18:30,1.1,0.7,1.1,1.0,0.9,0.5,0.4,south,8.7,No
2013/02/01,18:40,1.1,0.7,1.1,1.0,0.9,0.5,0.4,south-southwest,9.0,No
2013/02/01,18:50,1.1,0.7,1.1,1.0,0.9,0.5,0.4,south-southwest,9.0,No
2013/02/01,19:00,1.1,0.7,1.1,1.0,0.9,0.5,0.4,south-southwest,9.8,No
2013/02/01,19:10,1.1,0.7,1.1,1.0,0.9,0.5,0.4,south-southwest,9.0,No
2013/02/01,19:20,1.1,0.7,1.1,1.0,0.9,0.5,0.4,south-southwest,8.5,No
2013/02/01,19:30,1.1,0.7,1.1,1.0,0.9,0.5,0.4,south-southwest,9.5,No
2013/02/01,19:40,1.1,0.7,1.1,1.0,0.9,0.5,0.4,south-southwest,10.0,No
2013/02/01,19:50,1.1,0.7,1.1,1.0,0.9,0.5,0.4,south-southwest,7.8,No
2013/02/01,20:00,1.1,0.7,1.1,1.0,0.9,0.5,0.4,south-southwest,7.6,No
2013/02/01,20:10,1.1,0.7,1.1,1.0,0.9,0.5,0.4,south,7.2,No
2013/02/01,20:20,1.1,0.7,1.1,1.0,0.9,0.5,0.4,south-southwest,9.0,No
2013/02/01,20:30,1.1,0.7,1.1,1.0,0.9,0.5,0.4,south-southwest,9.2,No
2013/02/01,20:40,1.1,0.7,1.1,1.0,0.9,0.5,0.4,south-southwest,11.2,No
2013/02/01,20:50,1.1,0.7,1.1,1.0,0.9,0.5,0.4,south-southwest,10.6,No
2013/02/01,21:00,1.1,0.7,1.1,1.0,0.9,0.5,0.4,south,10.6,No
2013/02/01,21:10,1.1,0.7,1.1,1.0,0.9,0.5,0.4,south-southwest,9.2,No
2013/02/01,21:20,1.1,0.7,1.1,1.0,0.9,0.5,0.4,south-southwest,9.8,No
2013/02/01,21:30,1.1,0.7,1.1,1.0,0.9,0.5,0.4,south,9.6,No
2013/02/01,21:40,1.1,0.7,1.1,1.0,0.9,0.5,0.4,south,8.6,No
2013/02/01,21:50,1.1,0.7,1.1,1.0,0.9,0.5,0.4,south,7.8,No
2013/02/01,22:00,1.1,0.7,1.1,1.0,0.9,0.5,0.4,south,7.7,No
2013/02/01,22:10,1.1,0.7,1.1,1.0,0.9,0.5,0.4,south,6.0,No
2013/02/01,22:20,1.1,0.7,1.1,1.0,0.9,0.5,0.4,south,7.4,No
2013/02/01,22:30,1.1,0.7,1.1,1.0,0.9,0.5,0.4,south,8.1,No
2013/02/01,22:40,1.1,0.7,1.1,1.0,0.9,0.5,0.4,south-southwest,6.0,No
2013/02/01,22:50,1.1,0.7,1.1,1.0,0.9,0.5,0.4,south-southwest,7.6,No
2013/02/01,23:00,1.1,0.7,1.1,1.0,0.9,0.5,0.4,south-southwest,8.7,No
2013/02/01,23:10,1.1,0.7,1.1,1.0,0.9,0.5,0.4,south-southwest,6.4,No
2013/02/01,23:20,1.1,0.7,1.1,1.0,0.9,0.5,0.4,south-southwest,9.2,No
2013/02/01,23:30,1.1,0.7,1.1,1.0,0.9,0.5,0.4,south-southwest,11.1,No
2013/02/01,23:40,1.1,0.7,1.1,1.0,0.9,0.5,0.4,south-southwest,11.1,No
2013/02/01,23:50,1.1,0.7,1.1,1.0,0.9,0.5,0.4,south-southwest,11.2,No
